| time (UTC) | temp F | wind direction | speed MPH | gust MPH | rain 1hr in | rain 24hr in | rain mn in | humidity % | barometer mb |
| 20260504171521 | 61 | 71 | 0.0 | 2.0 | 0.00 | 0.00 | 0.00 | 79 | 1013.5 |
| 20260504081526 | 54 | 11 | 0.0 | 0.0 | 0.00 | 0.00 | 0.00 | 84 | 1013.0 |
| 20260504050018 | 56 | 11 | 0.0 | 0.0 | 0.00 | 0.00 | 0.00 | 80 | 1012.7 |
| 20260504044514 | 56 | 11 | 0.0 | 0.0 | 0.00 | 0.00 | 0.00 | 79 | 1012.6 |
| 20260504043012 | 56 | 11 | 0.0 | 0.0 | 0.00 | 0.00 | 0.00 | 78 | 1012.5 |
| 20260504041506 | 56 | 11 | 0.0 | 0.0 | 0.00 | 0.00 | 0.00 | 77 | 1012.3 |
| 20260504040006 | 57 | 11 | 0.0 | 0.0 | 0.00 | 0.00 | 0.00 | 77 | 1012.1 |
| 20260504034503 | 57 | 11 | 0.0 | 0.0 | 0.00 | 0.00 | 0.00 | 76 | 1012.0 |
| 20260504033002 | 58 | 11 | 0.0 | 0.0 | 0.00 | 0.00 | 0.00 | 75 | 1011.8 |
| 20260504031502 | 58 | 11 | 0.0 | 0.0 | 0.00 | 0.00 | 0.00 | 74 | 1011.6 |
| 20260504030002 | 59 | 11 | 0.0 | 0.0 | 0.00 | 0.00 | 0.00 | 74 | 1011.6 |
| 20260504024500 | 59 | 11 | 0.0 | 0.0 | 0.00 | 0.00 | 0.00 | 73 | 1011.5 |
| 20260504023002 | 60 | 11 | 0.0 | 0.0 | 0.00 | 0.00 | 0.00 | 73 | 1011.2 |
| 20260504021600 | 60 | 11 | 0.0 | 0.0 | 0.00 | 0.00 | 0.00 | 72 | 1011.2 |
| 20260504020108 | 60 | 11 | 0.0 | 0.0 | 0.00 | 0.00 | 0.00 | 69 | 1011.2 |
| 20260504014608 | 61 | 11 | 0.0 | 0.0 | 0.00 | 0.00 | 0.00 | 69 | 1011.2 |
| 20260504013058 | 61 | 11 | 0.0 | 1.0 | 0.00 | 0.00 | 0.00 | 66 | 1011.2 |
| 20260504011558 | 61 | 11 | 0.0 | 0.0 | 0.00 | 0.00 | 0.00 | 67 | 1011.2 |
| 20260504010058 | 62 | 11 | 0.0 | 1.0 | 0.00 | 0.00 | 0.00 | 66 | 1011.2 |
| 20260504004557 | 62 | 11 | 0.0 | 1.0 | 0.00 | 0.00 | 0.00 | 66 | 1011.2 |
| 20260504003056 | 62 | 11 | 0.0 | 1.0 | 0.00 | 0.00 | 0.00 | 66 | 1011.5 |
| 20260504001606 | 62 | 11 | 0.0 | 1.0 | 0.00 | 0.00 | 0.00 | 66 | 1011.2 |
| 20260504000058 | 63 | 11 | 0.0 | 2.0 | 0.00 | 0.00 | 0.00 | 65 | 1011.3 |
| 20260503234554 | 63 | 12 | 0.0 | 1.0 | 0.00 | 0.00 | 0.00 | 65 | 1011.1 |
| 20260503233100 | 64 | 11 | 0.0 | 1.0 | 0.00 | 0.00 | 0.00 | 67 | 1011.0 |
| 20260503231555 | 64 | 5 | 0.0 | 4.0 | 0.00 | 0.00 | 0.00 | 65 | 1010.8 |
| 20260503230053 | 63 | 5 | 0.0 | 2.0 | 0.00 | 0.00 | 0.00 | 67 | 1010.9 |
| 20260503224552 | 63 | 5 | 0.0 | 0.0 | 0.00 | 0.00 | 0.00 | 67 | 1010.8 |
| 20260503223051 | 63 | 56 | 0.0 | 2.0 | 0.00 | 0.00 | 0.00 | 64 | 1010.8 |
| 20260503221550 | 64 | 57 | 0.0 | 3.0 | 0.00 | 0.00 | 0.00 | 63 | 1010.9 |
| 20260503220048 | 64 | 57 | 0.0 | 2.0 | 0.00 | 0.00 | 0.00 | 64 | 1011.1 |
| 20260503214556 | 63 | 59 | 0.0 | 2.0 | 0.00 | 0.00 | 0.00 | 66 | 1011.2 |
| 20260503213048 | 64 | 60 | 0.0 | 1.0 | 0.00 | 0.00 | 0.00 | 66 | 1011.0 |
| 20260503211549 | 63 | 67 | 0.0 | 4.0 | 0.00 | 0.00 | 0.00 | 66 | 1011.0 |
| 20260503210041 | 62 | 55 | 0.0 | 4.0 | 0.00 | 0.00 | 0.00 | 67 | 1011.2 |
| 20260503204542 | 61 | 59 | 1.0 | 4.0 | 0.00 | 0.00 | 0.00 | 70 | 1011.2 |
| 20260503203037 | 60 | 63 | 0.0 | 3.0 | 0.00 | 0.00 | 0.00 | 72 | 1011.4 |
| 20260503201536 | 60 | 64 | 0.0 | 2.0 | 0.00 | 0.00 | 0.00 | 74 | 1011.5 |
| 20260503200036 | 60 | 64 | 0.0 | 1.0 | 0.00 | 0.00 | 0.00 | 72 | 1011.6 |
| 20260503194537 | 60 | 64 | 0.0 | 1.0 | 0.00 | 0.00 | 0.00 | 74 | 1011.5 |
| 20260503193030 | 59 | 351 | 0.0 | 1.0 | 0.00 | 0.00 | 0.00 | 76 | 1011.6 |
| 20260503191525 | 57 | 351 | 0.0 | 1.0 | 0.00 | 0.00 | 0.00 | 79 | 1011.7 |
| 20260503190039 | 57 | 351 | 0.0 | 1.0 | 0.00 | 0.00 | 0.00 | 79 | 1011.8 |
| 20260503184522 | 57 | 351 | 0.0 | 1.0 | 0.00 | 0.00 | 0.00 | 81 | 1011.9 |
| 20260503183023 | 57 | 351 | 0.0 | 0.0 | 0.00 | 0.00 | 0.00 | 82 | 1011.8 |
| 20260503181520 | 57 | 351 | 0.0 | 0.0 | 0.00 | 0.00 | 0.00 | 82 | 1011.7 |
| 20260503180033 | 56 | 351 | 0.0 | 1.0 | 0.00 | 0.00 | 0.00 | 82 | 1011.8 |
| 20260503174515 | 56 | 351 | 0.0 | 1.0 | 0.00 | 0.00 | 0.00 | 83 | 1011.7 |
| 20260503173014 | 55 | 351 | 0.0 | 3.0 | 0.00 | 0.00 | 0.00 | 84 | 1011.5 |